Russell, KS

3:09 AM CDT on September 26, 2017 (GMT -0500)
Russell Municipal

Weather History for KRSL - March, 2013

Change the Weather History Date:

Monday, March 4, 2013

  Actual Average Record
Temperature  
Mean Temperature 36 °F -  
Max Temperature 43 °F 45 °F 80 °F (1956)
Min Temperature 28 °F 24 °F -2 °F (1952)
Degree Days  
Heating Degree Days 30    
Moisture  
Dew Point 30 °F    
Average Humidity 78    
Maximum Humidity 100    
Minimum Humidity 48    
Precipitation  
Precipitation 0.00 in - - ()
Sea Level Pressure  
Sea Level Pressure 29.83 in    
Wind  
Wind Speed 12 mph (NNW)    
Max Wind Speed 31 mph    
Max Gust Speed 43 mph    
Visibility 9 miles    
Events      
Averages and records for this station are not official NWS values.
T = Trace of Precipitation, MM = Missing Value Source: NWS Daily Summary

Daily Weather History Graph

Daily Weather History Graph

Search for Another Location

Airport or City:

Trip Planner

Search our weather history database for the weather conditions in past years. The results will help you decide how hot, cold, wet, or windy it might be!

Date:

Astronomy

Mar. 04, 2013 Rise Set
Actual Time 7:02 AM CST 6:31 PM CST
Civil Twilight 6:36 AM CST 6:58 PM CST
Nautical Twilight 6:05 AM CST 7:28 PM CST
Astronomical Twilight 5:34 AM CST 7:59 PM CST
Moon 1:11 AM CST (3/4) 11:16 AM CST (3/4)
Length of Visible Light 12h 21m
Length of Day
11h 28m
Waning Gibbous, 52% of the Moon is Illuminated
Mar 4
Waning Gibbous
Mar 4
Last Quarter
Mar 11
New
Mar 19
First Quarter
Mar 27
Full

Hourly Weather History & Observations

Time (CST) Temp. Windchill Dew Point Humidity Pressure Visibility Wind Dir Wind Speed Gust Speed Precip Events Conditions
12:53 AM 34.0 °F 28.8 °F 30.9 °F 89% 29.63 in 6.0 mi NNW 5.8 mph - N/A   Clear
2:53 AM 33.1 °F 27.7 °F 30.9 °F 92% 29.64 in 5.0 mi North 5.8 mph - N/A   Clear
3:53 AM 33.1 °F - 30.9 °F 92% 29.63 in 6.0 mi Calm Calm - N/A   Clear
4:53 AM 28.9 °F 23.9 °F 27.0 °F 92% 29.65 in 2.5 mi WSW 4.6 mph - N/A   Clear
5:07 AM 28.4 °F 24.6 °F 28.4 °F 100% 29.62 in 3.0 mi West 3.5 mph - N/A   Clear
5:53 AM 30.0 °F 26.5 °F 28.0 °F 92% 29.66 in 5.0 mi WNW 3.5 mph - N/A   Clear
6:53 AM 30.9 °F 20.2 °F 28.9 °F 92% 29.68 in 7.0 mi NW 15.0 mph - N/A   Clear
7:53 AM 37.9 °F 28.5 °F 30.9 °F 76% 29.71 in 10.0 mi NNW 17.3 mph - N/A   Clear
8:53 AM 39.0 °F 29.0 °F 32.0 °F 76% 29.75 in 10.0 mi North 20.7 mph 28.8 mph N/A   Clear
9:32 AM 39.2 °F 29.6 °F 33.8 °F 81% 29.73 in 10.0 mi North 19.6 mph - N/A   Mostly Cloudy
9:53 AM 39.0 °F 29.3 °F 33.1 °F 79% 29.77 in 10.0 mi North 19.6 mph 28.8 mph N/A   Overcast
10:53 AM 39.9 °F 30.0 °F 33.1 °F 77% 29.78 in 10.0 mi North 21.9 mph 29.9 mph N/A   Overcast
11:53 AM 41.0 °F 31.9 °F 34.0 °F 76% 29.79 in 10.0 mi North 19.6 mph - N/A   Overcast
12:53 PM 42.1 °F 32.6 °F 34.0 °F 73% 29.78 in 10.0 mi North 23.0 mph - N/A   Overcast
1:53 PM 42.1 °F 34.2 °F 34.0 °F 73% 29.77 in 10.0 mi North 16.1 mph - N/A   Overcast
2:53 PM 43.0 °F 35.7 °F 35.1 °F 74% 29.80 in 10.0 mi North 15.0 mph - N/A   Overcast
3:53 PM 42.1 °F 32.3 °F 33.1 °F 70% 29.85 in 10.0 mi North 24.2 mph - N/A   Overcast
4:21 PM 41.0 °F 32.8 °F 33.8 °F 76% 29.83 in 10.0 mi North 16.1 mph - N/A   Overcast
4:53 PM 41.0 °F 33.1 °F 34.0 °F 76% 29.89 in 10.0 mi North 15.0 mph - N/A   Overcast
5:53 PM 39.9 °F 28.2 °F 30.0 °F 68% 29.95 in 10.0 mi NNW 31.1 mph 42.6 mph N/A   Overcast
6:53 PM 37.0 °F 27.7 °F 33.1 °F 86% 30.01 in 10.0 mi NNW 16.1 mph 25.3 mph 0.00 in   Overcast
7:53 PM 37.0 °F 28.9 °F 33.1 °F 86% 30.06 in 10.0 mi NNW 12.7 mph - 0.00 in   Overcast
8:53 PM 37.0 °F 29.3 °F 32.0 °F 82% 30.09 in 10.0 mi NW 11.5 mph - N/A   Overcast
9:53 PM 37.0 °F 26.4 °F 19.9 °F 50% 30.10 in 10.0 mi NNW 20.7 mph 28.8 mph N/A   Mostly Cloudy
10:53 PM 35.1 °F 22.2 °F 17.1 °F 48% 30.14 in 10.0 mi NW 27.6 mph 34.5 mph N/A   Clear
11:53 PM 33.1 °F 19.8 °F 16.0 °F 50% 30.17 in 10.0 mi NW 26.5 mph 35.7 mph N/A   Clear